Wind_Speed
6 6 5 4 3 4 6 6 6 7 8 8 7 8 8 10 11 12 11 10 9 9 9 8 8 7 7 8 8 8 8 7 7 8 8 8 7 6 6 5 5 4 4 4
9 7 6 6 5 6 7 7 6 7 8 9 9 8 9 9 10 11 11 11 10 9 9 9 8 7 7 8 8 8 8 7 8 8 8 8 8 7 6 5 5 5 5 4
10 8 9 10 10 10 9 8 9 8 10 9 10 9 8 11 11 10 11 11 11 9 9 8 8 8 8 8 8 8 7 8 8 8 8 8 8 7 7 6 6 6 5 5
12 11 12 13 12 12 12 10 11 10 11 9 10 11 9 11 12 11 11 11 10 10 9 9 9 9 9 9 9 8 7 8 8 8 8 8 8 8 8 8 7 7 6 6
13 13 14 15 13 13 12 12 13 13 13 11 10 12 10 11 12 12 12 12 11 11 10 10 10 10 10 10 9 8 8 8 8 8 8 8 9 8 8 8 8 8 7 7
15 16 16 16 15 15 13 13 14 12 13 13 10 11 11 11 12 12 12 12 11 11 10 11 11 10 10 10 10 10 9 9 9 9 9 9 9 9 9 9 9 8 8 8
17 17 17 16 16 15 13 14 13 12 14 13 10 11 12 11 12 12 13 13 11 11 10 11 11 12 10 10 10 10 10 10 10 10 10 10 10 10 10 10 10 9 9 9
18 18 18 18 17 16 15 15 14 13 14 13 12 12 12 12 13 14 14 14 13 12 12 12 13 12 12 11 11 11 11 11 11 11 11 11 11 11 11 10 11 11 11 10
17 18 18 18 18 18 17 16 14 14 14 16 15 15 14 13 12 13 14 13 12 12 13 13 15 15 14 13 12 12 13 13 12 13 13 13 13 12 12 12 12 12 12 12
20 20 18 18 18 19 18 16 15 16 17 17 15 15 16 14 14 13 14 13 12 14 14 13 15 16 15 15 14 13 14 14 14 14 15 15 14 14 13 13 13 13 13 13
21 21 19 19 19 17 18 18 18 18 18 17 17 17 15 14 16 15 14 13 14 14 14 14 15 15 16 16 16 16 16 16 16 16 16 16 15 15 15 15 14 14 15 15
23 22 22 20 20 21 21 20 18 19 20 20 21 21 18 17 15 15 15 15 16 15 15 16 16 15 16 16 17 17 17 17 17 17 17 17 17 17 17 16 16 16 16 16
25 24 23 21 21 21 21 20 20 20 20 20 21 20 17 16 14 15 16 17 18 18 17 18 18 18 17 16 16 17 18 19 18 18 18 17 17 18 18 18 16 16 17 17
28 27 25 22 20 19 20 20 20 22 22 22 22 22 20 20 19 17 18 18 20 20 19 19 19 19 18 16 17 18 19 20 20 20 20 19 19 20 19 18 17 18 18 19
27 27 26 24 20 17 18 18 20 23 24 23 22 22 22 23 22 19 19 19 19 20 20 20 20 21 21 19 18 19 20 20 20 20 20 20 21 21 20 19 19 19 20 19
28 28 28 26 23 22 22 21 21 22 22 22 23 24 23 23 21 22 22 21 20 21 21 21 22 22 21 21 20 20 20 20 20 19 19 20 20 21 21 20 20 20 20 20
28 29 28 26 24 24 25 24 23 22 22 23 24 25 25 25 24 25 25 25 22 22 22 20 22 22 22 22 22 21 21 21 21 21 20 21 21 21 21 21 20 20 20 20
28 29 29 28 26 29 26 24 25 25 24 25 25 26 26 26 26 27 27 26 24 23 23 21 21 22 23 23 23 22 22 22 21 21 21 21 22 22 22 22 22 21 20 20
30 31 30 29 28 28 26 25 26 26 26 26 26 27 29 28 27 26 27 26 25 24 24 23 23 23 24 25 24 23 23 23 22 22 22 22 22 23 22 22 22 21 21 21
30 30 30 30 29 30 27 27 27 27 28 27 27 28 29 29 28 27 27 26 25 24 25 25 25 25 25 24 24 25 25 24 23 23 23 22 23 22 22 23 22 22 22 22
30 30 31 31 31 30 28 27 26 28 29 28 28 27 27 29 30 30 28 27 26 25 26 26 26 26 25 25 25 26 26 25 24 24 23 23 23 23 23 23 23 23 24 24
30 30 31 32 32 32 29 27 29 29 30 30 29 29 29 29 29 31 30 29 28 28 28 27 27 27 26 25 25 25 25 25 25 25 25 25 24 25 25 25 25 25 26 25
30 30 30 30 31 32 31 31 31 30 30 29 30 30 29 29 30 31 31 31 30 29 29 29 29 28 28 26 26 26 25 25 25 26 26 26 27 27 27 26 27 27 27 27
30 30 31 31 32 32 31 32 32 31 30 31 32 33 33 31 31 31 31 31 30 30 30 30 30 30 29 28 27 27 26 26 26 27 28 28 27 27 27 28 28 28 27 27
30 31 31 31 32 33 33 34 34 32 31 31 32 32 31 31 31 31 31 31 31 31 30 30 30 30 30 28 27 27 27 28 28 28 28 28 27 28 27 27 27 27 28 27
30 30 32 34 35 36 34 34 35 35 33 33 33 33 31 30 31 32 32 32 31 31 31 31 31 30 30 30 29 28 28 28 29 29 28 28 28 28 27 27 27 27 27 27
Wind_Direction
224 238 240 233 237 261 281 277 292 300 307 310 317 326 324 324 329 331 333 339 346 350 353 354 353 349 349 354 355 352 351 354 359 4 7 11 10 8 8 6 3 358 346 334
234 239 243 246 246 254 266 272 274 293 301 305 309 315 318 311 319 321 321 327 336 341 345 347 346 344 341 345 347 345 345 347 349 352 358 359 359 2 360 357 356 352 345 335
241 238 243 250 250 251 254 265 275 282 290 299 303 305 303 309 312 312 314 321 328 332 337 337 336 338 338 336 337 339 337 340 341 342 344 347 346 350 349 346 344 340 340 335
237 238 241 247 249 253 256 256 266 271 275 281 288 297 291 302 311 309 312 317 319 321 323 330 331 330 330 327 326 328 328 330 332 330 334 339 338 336 338 338 338 335 334 331
237 241 242 247 251 248 252 255 259 260 268 270 279 290 295 305 307 305 309 314 315 316 317 323 325 321 321 320 317 319 322 323 324 324 324 327 327 326 329 330 327 328 329 328
241 241 244 247 250 249 249 254 260 265 274 277 275 276 283 292 297 298 304 309 311 311 313 317 317 315 315 316 316 314 314 316 319 320 320 319 318 316 316 318 318 316 320 322
245 247 247 248 249 251 251 257 266 273 277 280 271 264 269 279 285 289 291 297 301 302 306 310 312 315 313 315 316 313 311 310 312 315 316 315 314 313 310 310 316 318 317 315
246 250 250 252 250 249 247 248 255 266 279 288 279 266 270 270 273 280 287 291 295 298 302 304 310 314 313 313 311 308 306 307 308 310 311 311 310 310 307 305 307 310 309 310
243 249 248 251 250 245 243 243 251 257 263 271 276 270 266 268 272 280 284 289 294 293 295 300 306 310 309 306 304 303 305 301 302 303 305 306 306 306 304 303 302 303 304 307
238 244 242 247 250 246 242 239 246 247 252 260 264 267 267 264 270 277 282 286 287 288 289 294 301 303 306 303 300 303 304 301 298 297 299 300 300 298 298 298 296 295 296 298
238 242 244 247 249 247 245 241 236 241 245 254 262 261 258 261 263 272 282 286 287 288 292 294 293 297 303 305 304 304 301 300 298 298 297 296 295 293 292 293 293 291 290 293
237 239 243 243 249 248 245 240 236 241 245 244 253 261 260 256 261 269 275 281 283 285 286 285 287 293 300 304 303 302 301 300 299 296 294 294 293 293 292 289 288 290 291 291
235 234 237 240 242 245 248 240 236 237 247 250 252 260 263 261 260 267 271 274 278 279 279 282 284 287 293 300 302 302 301 299 297 295 291 290 292 292 291 288 288 290 290 290
235 235 234 238 248 246 247 243 239 239 242 249 251 258 257 258 260 263 267 269 273 279 282 285 289 288 288 295 297 299 300 299 298 296 293 290 289 291 291 290 289 288 287 287
236 237 238 236 238 243 247 248 246 246 241 244 251 255 256 259 262 261 262 268 270 275 280 281 282 286 290 293 294 297 301 302 300 297 294 290 288 289 289 287 289 288 287 287
236 236 237 237 233 236 240 243 245 247 244 244 248 253 255 254 256 262 264 269 271 272 274 276 278 280 287 292 294 296 299 300 299 299 298 294 292 293 291 288 289 289 288 288
241 241 240 241 238 237 237 241 245 245 241 242 247 248 250 253 256 261 265 269 271 270 275 275 277 281 285 289 294 296 299 301 300 300 300 296 292 294 293 292 291 290 289 288
243 241 241 242 239 241 237 238 243 244 242 240 245 250 249 249 252 260 265 269 269 270 275 278 277 278 282 285 290 292 295 297 298 298 299 299 297 295 295 293 292 290 290 289
239 241 241 242 245 248 244 243 243 242 242 242 245 248 250 251 253 257 261 265 267 269 273 277 279 279 279 283 285 288 291 293 295 296 296 296 296 295 295 294 293 292 292 292
240 240 241 241 244 247 247 245 245 246 248 246 246 245 250 253 255 257 261 266 269 269 271 275 277 278 279 280 282 285 289 290 291 293 293 293 293 294 294 294 294 294 295 294
241 240 239 240 243 245 245 246 246 245 246 248 248 248 252 254 256 258 259 262 268 270 271 273 275 277 280 281 281 284 286 289 290 292 292 292 293 295 295 295 294 295 295 296
241 242 241 240 240 242 241 243 243 246 248 249 249 252 254 255 255 257 258 260 265 268 270 272 273 275 280 281 283 284 286 287 289 291 292 293 293 293 293 293 294 295 295 295
240 239 240 242 243 243 239 240 242 246 249 248 249 253 254 256 256 257 259 260 263 266 269 271 272 274 278 280 280 282 284 285 287 290 292 292 292 291 292 293 293 293 293 292
240 239 239 239 240 242 243 245 244 243 248 249 250 252 254 256 257 258 260 261 263 265 268 270 272 274 277 278 278 280 283 286 287 289 290 291 291 291 291 291 291 292 292 292
238 237 239 241 240 241 244 246 246 245 247 251 252 252 253 256 258 259 260 262 264 265 266 269 271 274 275 276 277 279 282 284 286 288 289 288 289 290 290 290 291 288 289 291
238 239 239 241 242 243 244 246 248 247 248 251 253 254 255 257 259 260 262 265 265 264 265 268 271 273 274 275 277 278 281 284 285 286 287 288 288 288 289 289 290 290 289 290
Height
5918 5919 5921 5922 5923 5925 5926 5926 5927 5928 5926 5925 5923 5923 5922 5919 5917 5915 5914 5912 5911 5910 5909 5908 5907 5906 5905 5904 5903 5902 5901 5900 5899 5898 5897 5896 5895 5894 5893 5892 5892 5891 5891 5890
5917 5919 5921 5921 5922 5924 5925 5925 5926 5927 5925 5924 5923 5922 5921 5919 5917 5916 5914 5912 5911 5910 5909 5908 5907 5906 5905 5904 5903 5902 5902 5901 5900 5899 5898 5897 5896 5895 5894 5893 5892 5892 5891 5890
5916 5919 5919 5920 5922 5923 5923 5924 5925 5925 5924 5923 5922 5921 5920 5918 5917 5915 5914 5912 5911 5909 5908 5908 5906 5906 5905 5904 5903 5902 5902 5901 5900 5899 5898 5897 5896 5895 5894 5893 5892 5891 5891 5890
5914 5915 5917 5918 5920 5921 5922 5923 5924 5923 5922 5921 5921 5920 5918 5917 5916 5913 5912 5911 5910 5909 5908 5907 5906 5905 5904 5904 5903 5902 5901 5900 5899 5899 5898 5897 5896 5895 5894 5893 5892 5891 5890 5890
5911 5913 5914 5916 5917 5918 5919 5920 5920 5919 5918 5918 5919 5918 5917 5915 5915 5913 5912 5911 5909 5908 5907 5906 5905 5904 5903 5902 5902 5901 5900 5899 5899 5898 5897 5896 5895 5894 5893 5892 5891 5890 5889 5889
5908 5910 5911 5912 5914 5915 5916 5917 5916 5916 5916 5916 5917 5917 5915 5915 5914 5912 5910 5909 5908 5907 5906 5904 5903 5903 5902 5901 5900 5899 5899 5898 5898 5897 5896 5895 5894 5893 5892 5891 5890 5889 5888 5888
5904 5906 5907 5909 5910 5911 5913 5914 5914 5914 5914 5914 5915 5915 5914 5913 5912 5910 5909 5908 5907 5905 5904 5903 5902 5901 5900 5899 5899 5898 5897 5897 5896 5895 5895 5894 5893 5892 5891 5890 5889 5888 5887 5886
5901 5903 5904 5905 5906 5908 5909 5911 5913 5913 5913 5912 5911 5911 5912 5910 5909 5909 5908 5906 5905 5904 5903 5901 5901 5900 5898 5897 5897 5896 5895 5895 5894 5893 5893 5892 5891 5890 5889 5888 5888 5887 5886 5884
5897 5900 5902 5902 5903 5904 5905 5907 5909 5911 5910 5910 5909 5908 5908 5907 5906 5906 5905 5904 5903 5902 5901 5900 5899 5897 5896 5895 5894 5894 5893 5892 5891 5891 5890 5890 5889 5888 5887 5886 5885 5885 5884 5882
5892 5893 5896 5897 5899 5900 5901 5903 5905 5906 5906 5906 5906 5906 5904 5903 5903 5902 5902 5901 5900 5899 5898 5897 5897 5895 5894 5893 5891 5891 5890 5889 5888 5888 5887 5887 5886 5885 5884 5884 5883 5882 5881 5880
5886 5888 5891 5893 5893 5896 5897 5899 5900 5902 5902 5903 5902 5904 5901 5900 5899 5898 5898 5898 5897 5897 5896 5894 5894 5893 5891 5890 5888 5888 5887 5887 5886 5885 5885 5884 5882 5881 5880 5880 5879 5878 5877 5876
5880 5882 5884 5887 5889 5890 5892 5893 5896 5897 5897 5898 5897 5899 5896 5894 5894 5895 5895 5894 5894 5894 5893 5892 5890 5888 5888 5887 5886 5885 5884 5883 5882 5881 5880 5879 5879 5877 5876 5875 5875 5874 5874 5873
5873 5875 5878 5881 5885 5885 5885 5887 5890 5892 5893 5892 5893 5894 5891 5890 5890 5891 5891 5891 5890 5889 5888 5887 5885 5885 5883 5883 5883 5882 5880 5879 5878 5877 5875 5874 5874 5873 5872 5871 5870 5870 5869 5869
5866 5868 5871 5875 5877 5878 5880 5881 5884 5886 5887 5887 5888 5888 5888 5886 5885 5885 5885 5885 5886 5885 5884 5883 5882 5880 5878 5878 5878 5878 5876 5875 5874 5873 5871 5870 5869 5868 5867 5867 5866 5866 5865 5864
5859 5862 5864 5867 5870 5872 5874 5876 5877 5879 5880 5882 5882 5881 5881 5881 5879 5880 5881 5880 5880 5881 5880 5879 5878 5877 5875 5875 5874 5874 5872 5871 5869 5868 5867 5866 5865 5863 5863 5862 5861 5861 5860 5859
5852 5854 5857 5859 5863 5865 5867 5869 5871 5872 5874 5875 5875 5876 5875 5872 5874 5875 5875 5875 5874 5875 5874 5874 5873 5872 5871 5871 5871 5869 5868 5866 5864 5862 5862 5861 5860 5858 5858 5857 5856 5855 5854 5854
5844 5847 5849 5852 5856 5858 5860 5862 5864 5865 5867 5868 5868 5869 5869 5868 5869 5869 5869 5869 5869 5869 5867 5867 5868 5867 5867 5867 5866 5865 5864 5862 5860 5859 5858 5857 5855 5854 5853 5852 5851 5850 5849 5848
5837 5839 5842 5845 5849 5850 5854 5857 5857 5858 5859 5861 5861 5862 5861 5862 5863 5863 5863 5864 5864 5864 5863 5862 5862 5862 5862 5861 5860 5860 5859 5858 5856 5855 5853 5852 5850 5849 5848 5847 5846 5844 5843 5842
5830 5832 5835 5838 5840 5842 5846 5848 5849 5850 5851 5853 5854 5854 5854 5855 5857 5857 5857 5857 5857 5858 5859 5858 5858 5857 5856 5856 5855 5854 5853 5852 5851 5850 5848 5847 5845 5844 5843 5841 5840 5839 5837 5836
5822 5824 5828 5830 5832 5835 5839 5840 5840 5844 5844 5845 5846 5846 5847 5848 5849 5850 5850 5851 5852 5852 5853 5853 5853 5852 5850 5849 5849 5849 5848 5847 5845 5844 5842 5841 5840 5838 5837 5835 5834 5833 5831 5829
5814 5816 5819 5822 5824 5827 5830 5831 5834 5837 5836 5838 5838 5838 5840 5842 5843 5843 5843 5844 5846 5846 5847 5847 5847 5846 5844 5843 5842 5842 5841 5840 5839 5837 5836 5835 5834 5832 5831 5829 5828 5826 5825 5823
5807 5810 5811 5814 5816 5821 5821 5823 5825 5827 5829 5830 5831 5832 5833 5834 5835 5836 5837 5838 5839 5840 5840 5840 5840 5840 5837 5836 5836 5835 5834 5834 5832 5831 5830 5829 5827 5825 5824 5823 5821 5820 5818 5817
5800 5802 5803 5807 5810 5811 5812 5814 5817 5818 5820 5821 5823 5824 5825 5826 5828 5829 5830 5831 5832 5833 5833 5833 5833 5833 5832 5831 5831 5830 5829 5827 5826 5825 5823 5822 5820 5818 5817 5815 5814 5812 5811 5809
5792 5794 5796 5798 5800 5802 5803 5805 5808 5810 5812 5813 5815 5817 5818 5819 5820 5822 5823 5824 5825 5826 5826 5826 5826 5826 5825 5825 5824 5823 5822 5820 5819 5818 5816 5814 5812 5811 5809 5807 5806 5805 5803 5802
5783 5785 5787 5789 5791 5793 5795 5797 5800 5802 5804 5805 5807 5808 5810 5812 5813 5814 5815 5817 5818 5818 5818 5818 5818 5818 5818 5817 5817 5816 5815 5814 5812 5811 5808 5807 5805 5803 5801 5799 5798 5796 5795 5794
5775 5776 5778 5779 5782 5784 5786 5789 5791 5794 5796 5798 5799 5801 5802 5804 5805 5807 5808 5809 5810 5810 5811 5811 5810 5810 5810 5810 5809 5808 5807 5806 5804 5803 5801 5799 5797 5795 5793 5792 5790 5789 5787 5786